Terug naar catalogus

FREGAT DEB

ActiefUNKNOWN
NORAD 45994·DEBRIS·🇷🇺 Russia

Gelanceerd Jul 18, 2011 vanaf Baikonur Cosmodrome

Loading…

Volgende Passages (komende 24 uur)

TLE

VersSource: Space-Track

Epoch: Sep 14, 2026, 11:16 UTC

1 45994U 11037GV  26257.46992356  .00000123  00000-0  39285-3 0  9995
2 45994  51.5101  65.1418 1698519  97.5677 282.0436 10.95462127244979

Volg FREGAT DEB in realtime met AllMySat

Download on the App Store